Location: Bakov nad Jizerou
(50.4784°N, 14.9394°E)
Time: 15:36:29
(UTC+00:00)

Cosmos 2333 Rocket - Pass Details

Date: 16 June 2021
Orbit: 841 x 861 km, 70.8° (Epoch: 03 August)

Event Time Altitude Azimuth Distance (km) Brightness Sun altitude
Rises 22:51:24 0° 240° (WSW) 3,427 5.1 -16.1°
Reaches altitude 10° 22:54:06 10° 250° (WSW) 2,492 4.5 -16.1°
Maximum altitude 22:59:15 34° 314° (NW) 1,392 3.8 -16.1°
Drops below altitude 10° 23:04:26 10° 18° (NNE) 2,492 5.8 -16.1°
Sets 23:07:08 0° 28° (NNE) 3,428 6.5 -16.1°
